Wind_Speed
26 27 27 27 27 27 27 27 27 26 26 26 24 24 24 24 23 23 23 23 22 21 21 21 21 22 23 24 24 24 25 25 24 24 24 23 23 23 23 24 24 24 24
27 27 27 27 26 26 26 25 25 25 25 25 24 24 23 22 21 21 21 21 21 21 21 20 19 20 21 21 22 23 23 23 23 23 23 23 22 22 23 23 23 23 22
26 26 26 26 25 25 25 25 24 24 23 23 23 21 20 20 20 20 20 20 20 19 19 18 18 18 19 20 20 20 21 21 21 22 22 22 22 22 21 21 21 21 20
24 23 24 24 24 24 24 24 23 23 23 22 21 20 19 18 19 19 18 18 17 17 17 16 16 17 18 19 19 19 19 19 20 20 21 21 21 21 20 20 20 20 20
23 23 23 23 23 23 22 21 20 19 19 19 19 18 17 16 17 16 16 15 15 15 15 15 15 16 16 16 16 16 17 18 18 18 18 19 20 20 19 19 19 18 18
20 20 20 20 20 20 19 18 17 16 16 16 15 15 15 15 15 15 15 14 13 13 13 13 14 14 14 14 14 15 15 16 16 17 17 17 18 18 18 18 18 18 17
18 18 18 17 16 16 15 14 13 13 13 12 12 11 11 12 12 12 11 11 11 11 12 12 12 12 12 13 14 14 14 14 15 15 16 16 16 17 17 17 16 16 16
16 16 16 15 14 13 13 11 11 10 10 9 9 9 9 9 9 9 9 9 9 9 9 9 10 10 11 11 12 13 13 13 13 13 14 14 14 15 15 15 15 15 15
15 15 14 13 12 11 10 9 9 9 8 8 8 7 7 7 7 7 7 7 7 7 7 8 8 8 9 9 10 10 11 11 10 10 11 11 11 12 12 13 13 13 13
13 12 11 11 10 9 8 8 8 8 7 7 6 6 5 5 5 5 5 5 5 6 6 7 7 7 7 7 7 7 8 8 9 9 9 9 10 10 10 10 10 10 11
11 10 9 9 8 7 7 8 7 6 6 6 5 4 4 3 3 3 3 3 4 5 6 7 6 6 5 5 6 6 6 6 7 8 8 8 8 8 7 7 8 8 8
11 10 9 8 7 7 7 7 7 6 6 6 5 4 2 2 1 2 2 3 3 4 4 4 4 4 3 3 4 5 5 5 6 6 6 6 6 6 6 6 7 7 7
10 9 9 8 7 7 7 7 7 6 5 5 5 4 2 2 2 1 2 2 3 3 4 4 3 2 2 2 2 3 4 5 5 5 5 5 5 5 5 6 6 6 6
10 9 9 8 7 7 7 7 7 7 6 5 4 4 3 2 3 3 3 3 3 4 4 4 3 2 2 2 1 1 2 3 3 4 4 4 4 4 5 5 6 6 7
11 10 9 8 8 8 8 8 8 8 7 6 5 4 3 3 3 4 4 3 3 3 3 3 3 3 3 2 2 1 1 2 3 3 4 4 5 5 5 6 6 7 8
11 11 10 10 9 8 8 8 8 8 8 7 6 6 5 4 4 4 4 4 3 3 4 4 3 3 3 2 2 1 1 1 2 2 3 4 5 5 6 6 7 8 8
11 11 11 10 10 8 8 8 8 8 8 8 7 7 6 6 5 4 4 4 4 4 4 4 4 3 3 2 2 2 2 2 2 3 4 5 5 6 7 7 8 8 9
11 11 11 11 11 10 8 8 8 8 8 7 7 7 6 6 5 5 5 5 4 4 4 5 5 4 4 3 3 4 4 5 5 5 6 7 7 8 8 9 9 10 11
10 11 11 11 11 11 10 9 8 8 8 8 7 7 6 6 5 5 5 5 5 5 5 5 5 6 6 5 6 6 8 8 9 9 9 9 9 10 10 11 11 12 13
10 11 11 11 11 11 11 10 9 9 8 8 8 8 7 7 7 6 6 6 6 6 6 6 7 7 7 7 8 9 10 10 10 10 10 11 12 12 13 13 14 15 16
10 10 11 11 11 11 11 11 11 10 9 8 8 8 8 8 8 8 8 8 8 8 8 8 9 9 9 9 9 10 11 12 13 13 14 14 15 15 16 17 17 18 19
10 10 11 11 11 12 12 12 11 11 10 9 9 9 8 9 9 9 10 10 10 10 10 11 11 12 13 13 13 14 15 15 16 17 17 17 18 19 19 20 21 22 22
9 10 11 11 11 12 12 12 12 11 11 11 10 10 10 10 11 11 11 12 12 13 13 14 14 14 15 16 17 17 18 18 19 19 20 21 21 22 23 23 24 25 26
10 10 11 11 12 13 13 13 13 13 12 12 12 12 12 12 13 13 14 14 15 15 16 16 17 17 18 19 19 20 21 21 22 23 23 24 24 25 26 27 28 28 29
10 11 11 12 13 13 14 14 14 14 14 14 13 14 15 15 15 16 16 17 17 17 18 19 19 20 21 21 22 23 23 24 25 26 27 28 28 29 30 30 31 32 33
11 12 13 13 14 14 15 15 16 16 16 15 16 16 16 17 17 18 18 19 19 19 20 21 22 22 23 24 25 26 27 28 28 29 30 31 31 31 32 33 34 34 35
Wind_Direction
294 295 295 294 292 290 289 287 287 286 285 284 284 284 283 282 280 280 278 275 272 269 265 265 264 262 260 259 257 257 256 256 257 258 258 258 260 261 264 266 267 268 270
296 297 296 294 292 290 288 287 287 287 285 284 284 285 284 282 279 278 276 274 270 268 267 265 263 263 262 260 258 256 256 257 257 257 257 257 260 262 264 266 267 268 270
296 296 296 293 290 289 289 288 287 286 284 284 284 283 282 280 277 277 277 275 272 269 267 264 265 266 265 263 261 258 256 256 257 257 257 258 259 262 264 265 267 269 272
299 298 297 295 293 291 291 291 289 287 285 283 282 280 280 279 278 278 277 277 274 271 268 267 267 268 266 264 261 257 255 255 256 257 256 257 257 260 262 264 266 269 271
301 300 300 299 298 295 293 294 293 290 288 285 282 279 280 279 278 276 276 277 275 272 270 268 268 269 267 264 262 258 255 256 258 258 255 255 257 259 260 262 264 267 268
304 304 305 304 303 302 298 297 297 296 293 289 288 283 279 277 276 275 275 275 275 273 270 269 270 270 267 263 262 259 256 257 257 256 255 255 256 256 257 261 264 266 266
309 310 311 311 310 310 308 303 300 300 297 293 290 288 282 278 279 278 278 277 276 272 270 270 271 271 269 264 263 261 260 258 257 257 255 254 255 255 256 260 265 266 266
313 313 315 315 315 314 311 310 309 308 307 305 297 288 285 284 283 278 277 277 276 276 273 275 277 274 273 270 266 262 259 258 257 255 254 255 256 258 259 261 263 266 266
320 320 318 317 316 317 316 311 315 318 314 310 308 295 289 290 286 282 277 275 280 280 281 283 281 280 275 271 267 263 259 252 250 252 254 255 256 259 261 261 262 264 266
327 327 325 324 325 325 324 322 319 317 317 318 312 304 297 291 292 290 281 288 287 286 288 292 291 289 284 273 267 263 256 249 248 250 254 256 258 260 261 261 262 264 266
340 340 339 337 337 338 337 336 336 334 334 331 327 314 306 298 305 311 303 303 293 300 302 300 298 292 287 275 262 253 249 248 250 251 254 256 257 258 259 260 261 264 265
351 352 354 354 353 349 346 347 349 349 350 357 348 338 328 335 338 335 327 322 320 320 325 325 318 302 291 275 256 249 248 249 252 252 253 254 255 260 263 264 265 265 263
3 6 6 4 1 3 4 6 4 359 357 2 8 7 16 37 23 351 340 340 349 342 348 351 348 327 312 302 272 256 253 251 251 250 248 251 257 263 267 267 268 266 263
15 14 14 12 10 11 11 14 14 12 10 11 17 24 31 19 12 6 357 354 357 353 352 3 3 2 1 353 313 265 249 251 250 249 250 254 262 267 272 269 270 268 269
22 20 19 20 22 22 22 22 20 17 16 17 18 16 14 12 12 14 12 359 351 352 357 4 359 1 10 9 358 330 304 268 256 256 255 260 268 272 273 272 272 276 277
23 24 25 27 27 24 23 23 21 21 20 19 18 16 13 10 9 12 11 7 3 350 345 351 351 348 354 351 349 345 315 285 273 265 267 270 274 277 276 275 280 286 286
22 23 24 25 24 21 19 17 16 16 16 15 13 13 12 11 13 10 1 354 351 341 339 339 335 332 326 322 320 320 304 295 289 283 284 282 282 283 284 284 285 287 289
20 21 23 23 22 20 17 15 14 12 10 6 4 3 2 0 355 348 344 341 335 326 324 326 322 321 321 310 301 298 294 292 289 287 287 286 285 284 285 287 287 289 290
18 19 21 21 20 19 18 17 15 11 8 7 6 4 0 356 347 337 331 328 322 318 311 306 304 307 308 303 297 296 297 296 293 289 287 286 286 285 286 287 287 289 290
14 15 17 18 17 17 16 14 10 5 1 359 356 354 352 350 345 338 331 325 318 314 311 307 302 299 299 298 294 293 294 295 295 293 291 289 287 287 287 286 287 289 291
11 12 14 15 15 14 11 8 4 1 357 353 349 345 341 339 336 333 327 322 318 313 308 305 303 300 299 298 296 297 297 296 296 294 291 290 289 289 289 289 290 290 291
3 5 6 7 7 6 4 1 359 356 353 349 344 342 338 333 328 323 319 314 311 308 305 303 300 297 293 292 293 293 292 291 291 292 292 291 291 290 291 292 293 293 293
355 356 357 359 358 358 357 355 353 350 346 343 339 334 330 324 320 316 314 311 307 303 301 299 298 296 294 291 290 290 291 291 291 290 291 292 292 291 291 291 292 292 293
349 349 349 351 352 352 350 349 348 346 342 337 333 330 326 322 318 314 311 309 308 304 302 300 297 295 295 295 294 292 291 290 290 291 291 292 292 292 292 292 292 292 292
342 342 343 344 344 344 343 342 340 338 336 332 328 324 322 320 317 315 314 312 310 307 305 302 299 297 296 296 295 293 291 290 290 289 288 288 289 291 291 291 292 292 292
342 341 340 338 338 338 336 334 333 331 330 326 322 318 317 316 315 314 312 310 308 306 304 302 300 299 297 297 295 294 291 290 289 289 289 289 290 290 290 291 291 290 291
Height
5786 5783 5781 5778 5776 5773 5771 5769 5766 5765 5763 5761 5760 5758 5757 5756 5755 5754 5753 5753 5752 5752 5752 5752 5752 5752 5753 5754 5755 5757 5758 5760 5761 5762 5763 5764 5765 5766 5766 5766 5767 5767 5768
5780 5777 5774 5771 5769 5766 5764 5762 5760 5758 5756 5755 5753 5752 5751 5750 5749 5748 5747 5747 5746 5746 5746 5746 5746 5747 5747 5748 5749 5750 5751 5753 5754 5755 5756 5758 5759 5760 5760 5760 5761 5761 5762
5773 5770 5767 5764 5762 5760 5757 5755 5753 5752 5750 5748 5747 5746 5745 5744 5743 5743 5742 5741 5741 5740 5740 5740 5741 5741 5741 5742 5743 5744 5745 5747 5748 5749 5750 5752 5753 5753 5754 5755 5755 5756 5756
5767 5763 5761 5758 5755 5753 5750 5748 5746 5745 5744 5742 5741 5741 5740 5739 5738 5738 5737 5736 5736 5735 5735 5735 5735 5736 5736 5737 5737 5738 5739 5741 5742 5743 5745 5746 5747 5748 5749 5750 5750 5751 5751
5761 5758 5755 5752 5749 5747 5744 5742 5740 5739 5738 5737 5736 5735 5735 5734 5733 5733 5732 5731 5731 5731 5731 5731 5731 5731 5731 5732 5732 5733 5735 5736 5737 5738 5740 5741 5742 5743 5744 5744 5745 5746 5746
5756 5752 5749 5746 5743 5741 5739 5737 5736 5734 5733 5732 5731 5730 5730 5729 5729 5728 5728 5727 5727 5727 5727 5727 5727 5727 5727 5727 5728 5729 5730 5732 5733 5734 5735 5736 5737 5738 5739 5740 5740 5741 5741
5751 5748 5744 5742 5739 5737 5735 5733 5732 5730 5729 5728 5728 5727 5726 5726 5725 5725 5724 5724 5723 5723 5723 5723 5723 5723 5723 5724 5724 5725 5726 5728 5729 5730 5731 5732 5733 5734 5735 5735 5736 5736 5737
5747 5744 5741 5738 5736 5734 5732 5730 5729 5728 5726 5726 5725 5724 5724 5723 5722 5722 5722 5721 5721 5721 5721 5720 5720 5720 5720 5720 5721 5722 5723 5724 5725 5726 5727 5728 5729 5729 5730 5731 5732 5732 5733
5743 5740 5738 5736 5734 5731 5730 5728 5727 5726 5725 5724 5723 5722 5722 5721 5720 5720 5720 5719 5719 5719 5719 5718 5718 5718 5717 5717 5718 5719 5719 5720 5721 5722 5723 5724 5725 5726 5726 5727 5728 5729 5729
5741 5738 5735 5733 5731 5730 5728 5727 5726 5724 5723 5722 5721 5721 5720 5720 5719 5719 5719 5719 5718 5718 5717 5716 5716 5716 5715 5715 5716 5716 5717 5718 5719 5720 5721 5722 5722 5723 5723 5724 5725 5725 5726
5739 5736 5734 5732 5730 5729 5727 5726 5725 5724 5723 5722 5721 5720 5719 5719 5719 5718 5718 5718 5717 5717 5716 5715 5715 5714 5714 5714 5714 5715 5715 5716 5717 5718 5719 5719 5720 5720 5721 5721 5722 5722 5723
5738 5735 5733 5731 5730 5728 5727 5725 5724 5723 5722 5721 5721 5720 5719 5719 5719 5718 5718 5718 5717 5716 5716 5715 5714 5713 5713 5713 5713 5714 5714 5715 5716 5716 5717 5718 5718 5719 5719 5719 5719 5720 5720
5738 5736 5734 5732 5730 5729 5727 5726 5725 5724 5723 5722 5721 5720 5719 5719 5719 5719 5718 5718 5717 5717 5716 5715 5714 5713 5713 5712 5712 5713 5713 5714 5715 5715 5716 5716 5717 5717 5717 5717 5717 5718 5718
5739 5737 5735 5733 5731 5730 5728 5727 5726 5724 5723 5722 5722 5721 5720 5720 5720 5719 5719 5718 5718 5717 5716 5715 5714 5714 5713 5713 5713 5713 5713 5713 5714 5714 5715 5715 5716 5716 5716 5716 5716 5716 5716
5740 5738 5736 5734 5733 5731 5729 5728 5727 5726 5724 5724 5723 5722 5721 5721 5720 5720 5719 5719 5718 5718 5717 5716 5715 5715 5714 5714 5713 5713 5713 5713 5714 5714 5715 5715 5715 5715 5715 5714 5714 5714 5714
5742 5740 5738 5736 5734 5732 5731 5729 5728 5727 5726 5725 5724 5723 5722 5722 5721 5720 5720 5719 5718 5718 5717 5717 5716 5715 5715 5714 5714 5714 5714 5714 5714 5714 5714 5714 5714 5714 5713 5713 5712 5712 5711
5744 5741 5739 5737 5735 5734 5732 5731 5730 5729 5727 5726 5725 5724 5723 5722 5722 5721 5720 5720 5719 5718 5718 5717 5716 5716 5715 5715 5714 5714 5714 5714 5714 5714 5713 5713 5713 5712 5712 5711 5710 5710 5709
5745 5743 5741 5739 5737 5735 5733 5732 5731 5730 5729 5727 5726 5725 5724 5723 5722 5722 5721 5720 5719 5718 5718 5717 5716 5716 5715 5715 5715 5714 5714 5714 5713 5713 5712 5712 5711 5710 5709 5709 5708 5707 5706
5747 5745 5743 5741 5739 5737 5735 5733 5732 5731 5729 5728 5727 5726 5725 5724 5723 5722 5721 5720 5719 5718 5717 5717 5716 5715 5715 5714 5714 5713 5713 5712 5712 5711 5710 5709 5709 5708 5707 5706 5705 5704 5703
5749 5747 5745 5742 5740 5738 5736 5735 5733 5732 5730 5729 5727 5726 5725 5724 5723 5722 5721 5720 5719 5718 5717 5716 5715 5714 5714 5713 5712 5712 5711 5710 5709 5708 5707 5707 5706 5705 5704 5702 5701 5700 5698
5750 5748 5746 5744 5742 5740 5738 5736 5734 5732 5731 5729 5728 5726 5725 5724 5723 5721 5720 5719 5718 5717 5716 5715 5714 5713 5712 5711 5710 5709 5709 5708 5706 5705 5704 5703 5702 5701 5699 5698 5696 5695 5693
5751 5749 5747 5745 5743 5741 5739 5737 5735 5733 5731 5729 5728 5726 5725 5724 5722 5721 5719 5718 5716 5715 5714 5713 5712 5711 5710 5709 5708 5706 5705 5704 5703 5701 5700 5699 5697 5696 5694 5692 5690 5688 5686
5751 5749 5747 5745 5743 5741 5739 5737 5735 5733 5731 5729 5727 5726 5724 5723 5721 5719 5717 5716 5714 5713 5711 5710 5708 5707 5706 5705 5703 5702 5701 5699 5697 5696 5694 5693 5691 5689 5688 5686 5683 5681 5679
5750 5749 5747 5745 5743 5741 5739 5737 5735 5732 5730 5728 5726 5724 5723 5721 5719 5717 5715 5713 5711 5709 5708 5706 5704 5703 5701 5700 5698 5696 5695 5693 5691 5690 5688 5686 5684 5682 5680 5678 5675 5673 5670
5750 5748 5746 5744 5743 5740 5738 5736 5734 5731 5729 5727 5725 5723 5721 5718 5716 5714 5712 5710 5708 5706 5704 5702 5700 5698 5696 5694 5692 5690 5688 5686 5684 5682 5680 5678 5676 5673 5671 5669 5666 5664 5661
5749 5747 5745 5743 5741 5739 5737 5734 5732 5730 5727 5725 5723 5720 5718 5716 5713 5711 5708 5706 5704 5701 5699 5697 5694 5692 5690 5688 5685 5683 5680 5678 5675 5673 5670 5668 5666 5664 5661 5658 5656 5653 5650